This is the latest recevied weather packets stored in our database for station/object DH2PG-6. If no packets are shown the sender has not sent any weather packets the latest 10 day(s).
| Time | Temp. | Humidity | Pressure | Rain* | Wind** | Luminosity | Snow |
|---|---|---|---|---|---|---|---|
| 1777718477 | 22.22° C | 50% | 1016.6 hPa | 0 mm | - | - | - |
| 1777718177 | 22.22° C | 50% | 1016.8 hPa | 0 mm | - | - | - |
| 1777717877 | 21.67° C | 51% | 1016.8 hPa | 0 mm | - | - | - |
| 1777717276 | 21.67° C | 52% | 1016.7 hPa | 0 mm | - | - | - |
| 1777716976 | 21.11° C | 53% | 1016.8 hPa | 0 mm | - | - | - |
| 1777716675 | 21.11° C | 53% | 1016.7 hPa | 0 mm | - | - | - |
| 1777716375 | 21.11° C | 54% | 1016.7 hPa | 0 mm | - | - | - |
| 1777716075 | 20.56° C | 54% | 1016.8 hPa | 0 mm | - | - | - |
| 1777715774 | 20.56° C | 53% | 1016.9 hPa | 0 mm | - | - | - |
| 1777715474 | 20° C | 54% | 1017.1 hPa | 0 mm | - | - | - |
| 1777715174 | 20° C | 54% | 1017.1 hPa | 0 mm | - | - | - |
| 1777714874 | 20° C | 54% | 1016.9 hPa | 0 mm | - | - | - |
| 1777714273 | 20° C | 54% | 1017 hPa | 0 mm | - | - | - |
| 1777713973 | 20° C | 54% | 1017.1 hPa | 0 mm | - | - | - |
| 1777713673 | 19.44° C | 53% | 1017.1 hPa | 0 mm | - | - | - |
| 1777712772 | 18.89° C | 54% | 1017.1 hPa | 0 mm | - | - | - |
| 1777712471 | 18.89° C | 55% | 1017.1 hPa | 0 mm | - | - | - |
| 1777711871 | 17.78° C | 56% | 1017.1 hPa | 0 mm | - | - | - |
| 1777711571 | 17.78° C | 56% | 1017.1 hPa | 0 mm | - | - | - |
| 1777710670 | 16.67° C | 55% | 1017.1 hPa | 0 mm | - | - | - |
| 1777710370 | 16.67° C | 54% | 1017.1 hPa | 0 mm | - | - | - |
| 1777710069 | 16.11° C | 54% | 1017.1 hPa | 0 mm | - | - | - |
| 1777709769 | 16.11° C | 53% | 1017.3 hPa | 0 mm | - | - | - |
| 1777709469 | 16.67° C | 51% | 1017.4 hPa | 0 mm | - | - | - |
| 1777709168 | 16.67° C | 51% | 1017.3 hPa | 0 mm | - | - | - |
* Rain latest hour (hover to see other rain measurements)
** Current wind speed in m/s (hover to see current wind gust speed)